{"data":{"norad_id":43773,"intl_designator":"2018-099R","name":"RANGE-A","alt_names":[],"object_type":"PAYLOAD","status":"ACTIVE","operator":null,"country":"US","launch_date":"2018-12-03","launch_site_code":"AFWTR","launch_vehicle":null,"mission":null,"orbit_class":"UNKNOWN","rcs_meters":null,"size_class":null,"mass_kg":null,"dimensions":null,"purposes":[],"wikipedia_slug":null,"has_3d_model":false,"image_url":null,"decayed_at":null,"tle_current":{"epoch":"2026-09-19T16:56:56.192352Z","epoch_age_seconds":124299,"freshness":"FRESH","line1":"1 43773U 18099R   26262.70620593  .00002601  00000+0  14640-3 0  9997","line2":"2 43773  97.3887 302.5206 0010744  28.8984 331.2841 15.14056656426790","mean_motion":15.14056656,"eccentricity":0.0010744,"inclination_deg":97.3887,"raan_deg":302.5206,"arg_perigee_deg":28.8984,"mean_anomaly_deg":331.2841,"bstar":0.0001464,"rev_number":42679,"period_min":95.108726235143,"perigee_km":516.42847024543,"apogee_km":531.25944692925,"semimajor_km":6901.9809585873,"source":"CELESTRAK","updated_at":"2026-09-20T09:00:14.403075Z"}}}